Flag for U.S.A. Weather past 2 weeks in Boca Raton, Florida, U.S.A.

Now
57 °F

Clear.


Feels Like: 55 °F
Forecast: 59 / 74 °F
Wind: 10 mph from North

Location: Pompano Beach - Pompano Beach Airpark

Current Time: Mar 29, 2015 at 6:09:16 AM

Latest Report: Mar 29, 2015 at 5:53 AM


Visibility: 10 mi

Pressure: 30.21 "Hg

Humidity: 58%

Dew point: 42 °F

Location of Boca RatonLocation

Historic Weather in Boca Raton — Graph

°F

Boca Raton temperature yesterday

Maximum temperature yesterday: 72 °F (at 1:53 PM)
Minimum temperature yesterday: 61 °F (at 7:53 AM)
Average temperature yesterday: 67 °F

Past Weeks' High & Low Weather Summary

 TemperatureHumidityPressure
High91 °F (Mar 27, 3:53 PM)100% (Mar 25, 7:03 AM)30.23 "Hg (Mar 25, 7:03 AM)
Low58 °F (Mar 29, 4:53 AM)34% (Mar 28, 12:53 PM)29.80 "Hg (Mar 27, 4:53 PM)
Average76 °F70%30.04 "Hg
* Reported Mar 14 4:53 AM — Mar 29 4:53 AM, Boca Raton, Weather by CustomWeather, © 2015

Note: Actual official high and low records may vary slightly from our data, if they occured in-between our weather recording intervals... More about our weather records

Advertising

Boca Raton weather history for previous 24 hours

 ConditionsComfort  
Time TempWeatherWind HumidityBarometerVisibility
4:53 AM
Sun, Mar 29
58 °FClear.9 mph54%30.19 "Hg10 mi
3:53 AM59 °FClear.8 mph60%30.19 "Hg10 mi
2:53 AM59 °FClear.8 mph67%30.20 "Hg10 mi
1:53 AM61 °FClear.7 mph60%30.22 "Hg10 mi
12:53 AM62 °FClear.5 mph56%30.23 "Hg10 mi
11:53 PM
Sat, Mar 28
63 °FClear.8 mph50%30.22 "Hg10 mi
10:53 PM64 °FClear.3 mph54%30.21 "Hg10 mi
9:53 PM66 °FClear.No wind49%30.20 "Hg10 mi
8:53 PM66 °FClear.7 mph47%30.17 "Hg10 mi
7:53 PM67 °FSunny.9 mph44%30.14 "Hg10 mi
6:53 PM68 °FSunny.13 mph44%30.14 "Hg10 mi
5:53 PM70 °FSunny.15 mph38%30.13 "Hg10 mi
4:53 PM70 °FSunny.15 mph39%30.11 "Hg10 mi
3:53 PM70 °FSunny.13 mph38%30.12 "Hg10 mi
2:53 PM70 °FSunny.16 mph38%30.13 "Hg10 mi
1:53 PM72 °FPartly sunny.22 mph35%30.15 "Hg10 mi
12:53 PM71 °FScattered clouds.20 mph34%30.16 "Hg10 mi
11:53 AM69 °FPartly sunny.21 mph35%30.16 "Hg10 mi
10:53 AM66 °FPartly sunny.17 mph37%30.15 "Hg10 mi
9:53 AM62 °FPartly sunny.12 mph48%30.14 "Hg10 mi
8:53 AM61 °FSunny.8 mph56%30.11 "Hg10 mi
7:53 AM61 °FClear.9 mph52%30.09 "Hg10 mi
6:53 AM62 °FClear.13 mph52%30.06 "Hg10 mi
Weather by CustomWeather, © 2015

See weather overviewHow to use our weather pages